Walnut Ridge, AR

4:27 PM CST on February 20, 2018 (GMT -0600)
Walnut Ridge Regional

Weather History for KARG - January, 2012

Change the Weather History Date:

Friday, January 13, 2012

  Actual Average Record
Temperature  
Mean Temperature 32 °F -  
Max Temperature 39 °F 42 °F 66 °F (2005)
Min Temperature 24 °F 27 °F 5 °F (1997)
Degree Days  
Heating Degree Days 34    
Moisture  
Dew Point 11 °F    
Average Humidity 46    
Maximum Humidity 59    
Minimum Humidity 28    
Precipitation  
Precipitation 0.00 in - - ()
Sea Level Pressure  
Sea Level Pressure 30.11 in    
Wind  
Wind Speed 10 mph (WSW)    
Max Wind Speed 16 mph    
Max Gust Speed 22 mph    
Visibility 10 miles    
Events      
Averages and records for this station are not official NWS values.
T = Trace of Precipitation, MM = Missing Value Source: NWS Daily Summary

Daily Weather History Graph

Daily Weather History Graph

Search for Another Location

Airport or City:

Trip Planner

Search our weather history database for the weather conditions in past years. The results will help you decide how hot, cold, wet, or windy it might be!

Date:

Astronomy

Jan. 13, 2012 Rise Set
Actual Time 7:14 AM CST 5:10 PM CST
Civil Twilight 6:46 AM CST 5:38 PM CST
Nautical Twilight 6:14 AM CST 6:10 PM CST
Astronomical Twilight 5:43 AM CST 6:40 PM CST
Moon 10:12 PM CST (1/13) 9:39 AM CST (1/13)
Length of Visible Light 10h 51m
Length of Day
9h 55m
Waning Gibbous, 78% of the Moon is Illuminated
Jan 13
Waning Gibbous
Jan 16
Last Quarter
Jan 23
New
Jan 30
First Quarter
Feb 7
Full

Hourly Weather History & Observations

Time (CST) Temp. Windchill Dew Point Humidity Pressure Visibility Wind Dir Wind Speed Gust Speed Precip Events Conditions
12:15 AM 28.4 °F 17.0 °F 12.2 °F 51% 30.03 in 10.0 mi West 15.0 mph 21.9 mph N/A   Overcast
12:35 AM 26.6 °F 14.7 °F 12.2 °F 55% 30.03 in 10.0 mi West 15.0 mph - N/A   Overcast
12:55 AM 26.6 °F 15.7 °F 12.2 °F 55% 30.03 in 10.0 mi West 12.7 mph - N/A   Overcast
1:15 AM 26.6 °F 16.2 °F 12.2 °F 55% 30.03 in 10.0 mi West 11.5 mph - N/A   Overcast
1:35 AM 26.6 °F 16.8 °F 10.4 °F 51% 30.03 in 10.0 mi West 10.4 mph - N/A   Overcast
1:55 AM 26.6 °F 17.5 °F 12.2 °F 55% 30.03 in 10.0 mi West 9.2 mph - N/A   Mostly Cloudy
2:15 AM 26.6 °F 19.1 °F 12.2 °F 55% 30.03 in 10.0 mi West 6.9 mph - N/A   Partly Cloudy
2:35 AM 26.6 °F 20.0 °F 12.2 °F 55% 30.04 in 10.0 mi WSW 5.8 mph - N/A   Clear
2:55 AM 24.8 °F 17.9 °F 12.2 °F 59% 30.04 in 10.0 mi WSW 5.8 mph - N/A   Clear
3:15 AM 24.8 °F 16.9 °F 12.2 °F 59% 30.04 in 10.0 mi WSW 6.9 mph - N/A   Clear
3:35 AM 24.8 °F 16.1 °F 12.2 °F 59% 30.05 in 10.0 mi WSW 8.1 mph - N/A   Clear
3:55 AM 24.8 °F 16.1 °F 12.2 °F 59% 30.06 in 10.0 mi WSW 8.1 mph - N/A   Clear
4:15 AM 24.8 °F 16.9 °F 12.2 °F 59% 30.06 in 10.0 mi West 6.9 mph - N/A   Clear
4:35 AM 24.8 °F 16.9 °F 12.2 °F 59% 30.06 in 10.0 mi West 6.9 mph - N/A   Clear
4:55 AM 24.8 °F 16.9 °F 12.2 °F 59% 30.07 in 10.0 mi WSW 6.9 mph - N/A   Clear
5:15 AM 24.8 °F 16.9 °F 12.2 °F 59% 30.07 in 10.0 mi WSW 6.9 mph - N/A   Clear
5:35 AM 24.8 °F 16.9 °F 12.2 °F 59% 30.08 in 10.0 mi WSW 6.9 mph - N/A   Clear
5:55 AM 24.8 °F 16.9 °F 12.2 °F 59% 30.08 in 10.0 mi WSW 6.9 mph - N/A   Clear
6:15 AM 24.8 °F 16.9 °F 12.2 °F 59% 30.09 in 10.0 mi WSW 6.9 mph - N/A   Clear
6:55 AM 24.8 °F 14.6 °F 10.4 °F 54% 30.11 in 10.0 mi WSW 10.4 mph 16.1 mph N/A   Clear
7:35 AM 24.8 °F 16.9 °F 10.4 °F 54% 30.12 in 10.0 mi WSW 6.9 mph - N/A   Clear
7:55 AM 24.8 °F 16.9 °F 10.4 °F 54% 30.12 in 10.0 mi WSW 6.9 mph - N/A   Clear
8:15 AM 24.8 °F 17.9 °F 12.2 °F 59% 30.13 in 10.0 mi WSW 5.8 mph - N/A   Clear
8:35 AM 24.8 °F 16.9 °F 10.4 °F 54% 30.13 in 10.0 mi WSW 6.9 mph - N/A   Clear
8:55 AM 26.6 °F 16.8 °F 12.2 °F 55% 30.16 in 10.0 mi WSW 10.4 mph - N/A   Clear
9:15 AM 26.6 °F 15.2 °F 10.4 °F 51% 30.16 in 10.0 mi WSW 13.8 mph 18.4 mph N/A   Clear
9:35 AM 28.4 °F 17.5 °F 10.4 °F 47% 30.16 in 10.0 mi WSW 13.8 mph - N/A   Clear
9:55 AM 28.4 °F 19.1 °F 10.4 °F 47% 30.17 in 10.0 mi WSW 10.4 mph - N/A   Clear
10:15 AM 30.2 °F 20.8 °F 10.4 °F 44% 30.17 in 10.0 mi West 11.5 mph - N/A   Clear
10:35 AM 30.2 °F 21.9 °F 10.4 °F 44% 30.16 in 10.0 mi West 9.2 mph 17.3 mph N/A   Clear
10:55 AM 32.0 °F 23.6 °F 10.4 °F 41% 30.16 in 10.0 mi West 10.4 mph - N/A   Clear
11:15 AM 33.8 °F 25.8 °F 10.4 °F 38% 30.16 in 10.0 mi West 10.4 mph - N/A   Clear
11:35 AM 33.8 °F 25.3 °F 12.2 °F 41% 30.15 in 10.0 mi West 11.5 mph - N/A   Clear
11:55 AM 33.8 °F 25.8 °F 12.2 °F 41% 30.14 in 10.0 mi West 10.4 mph - N/A   Clear
12:15 PM 33.8 °F 25.8 °F 12.2 °F 41% 30.14 in 10.0 mi West 10.4 mph - N/A   Clear
12:35 PM 35.6 °F 27.5 °F 12.2 °F 38% 30.13 in 10.0 mi West 11.5 mph - N/A   Clear
1:15 PM 35.6 °F 28.6 °F 10.4 °F 35% 30.13 in 10.0 mi West 9.2 mph - N/A   Clear
1:35 PM 37.4 °F 30.8 °F 12.2 °F 36% 30.12 in 10.0 mi SW 9.2 mph - N/A   Clear
1:55 PM 37.4 °F 29.8 °F 10.4 °F 33% 30.11 in 10.0 mi WSW 11.5 mph - N/A   Clear
2:15 PM 37.4 °F 28.5 °F 12.2 °F 36% 30.12 in 10.0 mi WSW 15.0 mph - N/A   Clear
2:35 PM 37.4 °F 28.5 °F 10.4 °F 33% 30.12 in 10.0 mi WSW 15.0 mph - N/A   Clear
2:55 PM 39.2 °F 30.5 °F 8.6 °F 28% 30.12 in 10.0 mi WSW 16.1 mph - N/A   Clear
3:15 PM 39.2 °F 31.2 °F 8.6 °F 28% 30.13 in 10.0 mi WSW 13.8 mph - N/A   Clear
3:35 PM 37.4 °F 29.3 °F 8.6 °F 30% 30.13 in 10.0 mi WSW 12.7 mph - N/A   Clear
3:55 PM 37.4 °F 30.3 °F 8.6 °F 30% 30.14 in 10.0 mi WSW 10.4 mph - N/A   Clear
4:15 PM 39.2 °F 33.0 °F 8.6 °F 28% 30.14 in 10.0 mi West 9.2 mph - N/A   Clear
4:35 PM 37.4 °F 30.8 °F 8.6 °F 30% 30.14 in 10.0 mi West 9.2 mph - N/A   Clear
4:55 PM 37.4 °F 29.3 °F 8.6 °F 30% 30.15 in 10.0 mi West 12.7 mph - N/A   Clear
5:15 PM 35.6 °F 28.0 °F 8.6 °F 33% 30.15 in 10.0 mi West 10.4 mph - N/A   Clear
5:35 PM 35.6 °F 28.6 °F 10.4 °F 35% 30.16 in 10.0 mi West 9.2 mph - N/A   Clear
5:55 PM 33.8 °F 27.7 °F 12.2 °F 41% 30.17 in 10.0 mi West 6.9 mph - N/A   Clear
6:15 PM 33.8 °F 29.6 °F 10.4 °F 38% 30.17 in 10.0 mi West 4.6 mph - N/A   Clear
6:35 PM 33.8 °F 29.6 °F 12.2 °F 41% 30.17 in 10.0 mi West 4.6 mph - N/A   Clear
6:55 PM 33.8 °F - 8.6 °F 35% 30.17 in 10.0 mi Calm Calm - N/A   Clear
7:15 PM 30.2 °F 26.7 °F 21.2 °F 69% 30.18 in 10.0 mi South 3.5 mph - N/A   Clear
7:55 PM 30.2 °F 26.7 °F 17.6 °F 60% 30.18 in 10.0 mi WSW 3.5 mph - N/A   Clear
8:15 PM 30.2 °F 25.4 °F 17.6 °F 60% 30.18 in 10.0 mi West 4.6 mph - N/A   Clear
8:35 PM 33.8 °F 29.6 °F 8.6 °F 35% 30.19 in 10.0 mi WSW 4.6 mph - N/A   Clear
8:55 PM 28.4 °F 22.2 °F 21.2 °F 74% 30.19 in 10.0 mi SSW 5.8 mph - N/A   Clear
9:15 PM 28.4 °F 21.2 °F 17.6 °F 64% 30.19 in 10.0 mi SSW 6.9 mph - N/A   Clear
9:55 PM 28.4 °F - 19.4 °F 69% 30.19 in 10.0 mi Calm Calm - N/A   Clear
10:15 PM 30.2 °F 26.7 °F 19.4 °F 64% 30.19 in 10.0 mi SW 3.5 mph - N/A   Clear
10:35 PM 30.2 °F - 17.6 °F 60% 30.18 in 10.0 mi Calm Calm - N/A   Clear
10:55 PM 28.4 °F - 21.2 °F 74% 30.18 in 10.0 mi Calm Calm - N/A   Clear
11:35 PM 28.4 °F 24.6 °F 23.0 °F 80% 30.18 in 10.0 mi North 3.5 mph - N/A   Clear
11:55 PM 24.8 °F 19.1 °F 19.4 °F 80% 30.19 in 10.0 mi South 4.6 mph - N/A   Clear